This is the latest recevied weather packets stored in our database for station/object W4CPD. If no packets are shown the sender has not sent any weather packets the latest 10 day(s).
| Time | Temp. | Humidity | Pressure | Rain* | Wind** | Luminosity | Snow |
|---|---|---|---|---|---|---|---|
| 1778233815 | 17.78° C | 95% | 1015.2 hPa | 0.25 mm | - | - | - |
| 1778230215 | 17.78° C | 96% | 1015 hPa | 0 mm | - | - | - |
| 1778229937 | 17.78° C | 96% | 1014.8 hPa | 0 mm | - | - | - |
| 1778229612 | 17.78° C | 95% | 1014.8 hPa | 0 mm | - | - | - |
| 1778229319 | 17.78° C | 96% | 1014.7 hPa | 0.25 mm | - | - | - |
| 1778228135 | 17.78° C | 95% | 1014.9 hPa | 0.25 mm | - | - | - |
| 1778227518 | 17.78° C | 95% | 1015 hPa | 0.25 mm | - | - | - |
| 1778224218 | 17.78° C | 95% | 1015.3 hPa | 0.25 mm | - | - | - |
| 1778222413 | 18.33° C | 95% | 1014.9 hPa | 0.25 mm | - | - | - |
| 1778217016 | 19.44° C | 95% | 1015.7 hPa | 0.25 mm | - | - | - |
| 1778214914 | 19.44° C | 95% | 1015.6 hPa | 0.51 mm | - | - | - |
| 1778213114 | 20° C | 94% | 1015.5 hPa | 0.25 mm | - | - | - |
| 1778212843 | 20° C | 94% | 1015.6 hPa | 0.25 mm | - | - | - |
| 1778212515 | 20° C | 94% | 1015.7 hPa | 0.51 mm | - | - | - |
| 1778210715 | 20.56° C | 94% | 1015.7 hPa | 0.25 mm | - | - | - |
| 1778208617 | 21.11° C | 94% | 1016.1 hPa | 0.25 mm | - | - | - |
| 1778208355 | 21.11° C | 94% | 1015.9 hPa | 0.25 mm | - | - | - |
| 1778208013 | 21.67° C | 94% | 1015.9 hPa | 0.25 mm | - | - | - |
| 1778206531 | 22.22° C | 93% | 1015.5 hPa | 0.51 mm | - | - | - |
| 1778202037 | 22.78° C | 94% | 1014.6 hPa | 0.25 mm | - | - | - |
| 1778199015 | 23.33° C | 93% | 1014.1 hPa | 0.51 mm | - | - | - |
| 1778198715 | 23.33° C | 93% | 1014 hPa | 0.51 mm | - | - | - |
| 1778196920 | 23.89° C | 93% | 1014.2 hPa | 0.76 mm | - | - | - |
| 1778196015 | 23.89° C | 93% | 1014 hPa | 0.51 mm | - | - | - |
| 1778194832 | 24.44° C | 95% | 1013.9 hPa | 0.51 mm | - | - | - |
* Rain latest hour (hover to see other rain measurements)
** Current wind speed in m/s (hover to see current wind gust speed)